Hourly Data Report for October 04, 2016

All times are specified in Local Standard Time (LST). Add 1 hour to adjust for Daylight Saving Time where and when it is observed.

ST LEONARD CS
NEW BRUNSWICK

47°09'28.050" N
67°49'55.014" W
245.00 m
810I001
71019
WIY

Download Data

Hourly Data (October 2016)
Hourly Data Report for October 4, 2016
Temp Definition
°C
Dew Point Temp Definition
°C
Rel Hum Definition
%
Wind Dir Definition
10's deg

Wind Spd Definition
km/h
Visibility Definition
km
Stn Press Definition
kPa
Hmdx Definition


Wind Chill Definition


Weather Definition


TIME
00:00 -0.9 -1.9 92 1 6   99.60   -3 LegendNANA
01:00 -1.2 -1.8 96 9 3   99.63   -2 LegendNANA
02:00 -2.2 -2.7 97 36 4   99.70   -4 LegendNANA
03:00 -2.8 -3.3 96 31 2   99.71   -4 LegendNANA
04:00 -2.6 -3.0 97 1 5   99.75   -5 LegendNANA
05:00 -3.1 -3.5 97 5 1   99.82   -4 LegendNANA
06:00 -3.6 -4.1 96 0 1   99.86   -4 LegendNANA
07:00 -4.0 -4.6 96 16 1   99.91   -4 LegendNANA
08:00 -1.5 -3.1 89 26 2   99.91   -2 LegendNANA
09:00 3.9 -0.1 75 10 3   99.95     LegendNANA
10:00 6.1 1.2 71 24 5   99.95     LegendNANA
11:00 9.4 3.1 65 22 8   99.95     LegendNANA
12:00 12.5 4.2 57 22 7   99.95     LegendNANA
13:00 13.9 4.8 54 21 8   99.89     LegendNANA
14:00 14.8 5.1 52 18 10   99.83     LegendNANA
15:00 16.2 6.3 52 19 10   99.76     LegendNANA
16:00 16.1 6.8 54 19 10   99.72     LegendNANA
17:00 15.5 7.2 58 19 9   99.71     LegendNANA
18:00 13.0 7.3 69 18 9   99.70     LegendNANA
19:00 11.2 7.6 78 18 9   99.73     LegendNANA
20:00 9.4 6.8 84 17 9   99.74     LegendNANA
21:00 8.1 6.1 87 16 8   99.75     LegendNANA
22:00 8.4 6.2 86 18 6   99.78     LegendNANA
23:00 6.0 3.5 84 18 7   99.78     LegendNANA

Notes on Data Quality.

Legend

  • E = Estimated
  • M = Missing
  • NA = Not Available
  • ‡ = Partner data that is not subject to review by the National Climate Archives
Date modified: